This is the latest recevied weather packets stored in our database for station/object K5GHS-1. If no packets are shown the sender has not sent any weather packets the latest 10 day(s).
| Time | Temp. | Humidity | Pressure | Rain* | Wind** | Luminosity | Snow |
|---|---|---|---|---|---|---|---|
| 1778010491 | 31.11° C | 60% | 1002.8 hPa | 0 mm | - | 548 W/m² | - |
| 1778009883 | 31.11° C | 61% | 1003.1 hPa | 0 mm | - | 454 W/m² | - |
| 1778009581 | 31.11° C | 62% | 1003 hPa | 0 mm | - | 566 W/m² | - |
| 1778009279 | 30.56° C | 61% | 1002.7 hPa | 0 mm | - | 670 W/m² | - |
| 1778008977 | 30.56° C | 62% | 1002.7 hPa | 0 mm | - | 639 W/m² | - |
| 1778008674 | 30° C | 64% | 1002.8 hPa | 0 mm | - | 689 W/m² | - |
| 1778008373 | 30° C | 63% | 1003.1 hPa | 0 mm | - | 636 W/m² | - |
| 1778008069 | 30° C | 64% | 1002.7 hPa | 0 mm | - | 474 W/m² | - |
| 1778007764 | 30° C | 64% | 1002.7 hPa | 0 mm | - | 523 W/m² | - |
| 1778007461 | 29.44° C | 66% | 1003.1 hPa | 0 mm | - | 457 W/m² | - |
| 1778006853 | 28.89° C | 66% | 1003.1 hPa | 0 mm | - | 357 W/m² | - |
| 1778006247 | 28.89° C | 67% | 1003.2 hPa | 0 mm | - | 329 W/m² | - |
| 1778005945 | 28.89° C | 68% | 1003.1 hPa | 0 mm | - | 452 W/m² | - |
| 1778003214 | 27.78° C | 69% | 1003 hPa | 0 mm | - | 418 W/m² | - |
| 1778002910 | 27.78° C | 69% | 1003.3 hPa | 0 mm | - | 397 W/m² | - |
| 1778002606 | 27.78° C | 70% | 1003.2 hPa | 0 mm | - | 475 W/m² | - |
| 1778002001 | 27.22° C | 70% | 1003.3 hPa | 0 mm | - | 332 W/m² | - |
| 1778001697 | 27.22° C | 70% | 1003.2 hPa | 0 mm | - | 353 W/m² | - |
| 1778001392 | 27.22° C | 70% | 1003.2 hPa | 0 mm | - | 301 W/m² | - |
| 1778001090 | 27.22° C | 71% | 1003 hPa | 0 mm | - | 304 W/m² | - |
| 1778000178 | 27.22° C | 71% | 1003.3 hPa | 0 mm | - | 382 W/m² | - |
| 1777998966 | 26.11° C | 73% | 1003.5 hPa | 0 mm | - | 340 W/m² | - |
| 1777998360 | 26.11° C | 73% | 1003.5 hPa | 0 mm | - | 233 W/m² | - |
| 1777997755 | 26.67° C | 72% | 1003.2 hPa | 0 mm | - | 310 W/m² | - |
| 1777996543 | 26.11° C | 73% | 1003.1 hPa | 0 mm | - | 325 W/m² | - |
* Rain latest hour (hover to see other rain measurements)
** Current wind speed in m/s (hover to see current wind gust speed)